Weather History for Sparta, IL

Change the Weather History Date:

Monday, April 8, 2013

  Actual Average (KBLV) Record (KBLV)
Temperature  
Mean Temperature 68 °F -  
Max Temperature 75 °F 64 °F 86 °F (2001)
Min Temperature 60 °F 42 °F 24 °F (2007)
Cooling Degree Days 2    
Growing Degree Days 18 (Base 50)    
Moisture  
Dew Point 57 °F    
Average Humidity 70    
Maximum Humidity 78    
Minimum Humidity 53    
Precipitation  
Precipitation 0.00 in - - ()
Sea Level Pressure  
Sea Level Pressure 29.85 in    
Wind  
Wind Speed 11 mph (South)    
Max Wind Speed 18 mph    
Max Gust Speed 26 mph    
Visibility 10 miles    
Events      
Averages and records for this station are not official NWS values.
T = Trace of Precipitation, MM = Missing Value Source: NWS Daily Summary

Daily Weather History Graph

Daily Weather History Graph

Search for Another Location

Airport:

Trip Planner

Search our weather history database for the weather conditions in past years. The results will help you decide how hot, cold, wet, or windy it might be!

Date:

Astronomy

Apr. 08, 2013 Rise Set
Actual Time 6:33 AM CDT 7:28 PM CDT
Civil Twilight 6:06 AM CDT 7:55 PM CDT
Nautical Twilight 5:34 AM CDT 8:27 PM CDT
Astronomical Twilight 5:01 AM CDT 9:00 PM CDT
Moon 5:21 AM CDT (4/8) 6:03 PM CDT (4/8)
Length of Visible Light 13h 49m
Length of Day
12h 55m
Waning Crescent, 3% of the Moon is Illuminated
Apr 8
Waning Crescent
Apr 10
New
Apr 18
First Quarter
Apr 25
Full
May 2
Last Quarter

Hourly Weather History & Observations

Time (CDT) Temp. Dew Point Humidity Pressure Visibility Wind Dir Wind Speed Gust Speed Precip Events Conditions
12:15 AM 64.4 °F 57.2 °F 77% 29.90 in 10.0 mi South 8.1 mph - N/A   Scattered Clouds
12:35 AM 62.6 °F 55.4 °F 77% 29.87 in 10.0 mi SSE 9.2 mph - N/A   Scattered Clouds
12:55 AM 62.6 °F 55.4 °F 77% 29.86 in 10.0 mi SSE 6.9 mph - N/A   Scattered Clouds
1:15 AM 62.6 °F 55.4 °F 77% 29.86 in 10.0 mi South 9.2 mph 17.3 mph N/A   Clear
1:35 AM 62.6 °F 55.4 °F 77% 29.85 in 10.0 mi South 10.4 mph 16.1 mph N/A   Clear
1:55 AM 62.6 °F 55.4 °F 77% 29.83 in 10.0 mi South 13.8 mph 17.3 mph N/A   Clear
2:15 AM 62.6 °F 55.4 °F 77% 29.82 in 10.0 mi South 16.1 mph 24.2 mph N/A   Clear
2:35 AM 62.6 °F 55.4 °F 77% 29.82 in 10.0 mi South 11.5 mph - N/A   Clear
2:55 AM 62.6 °F 53.6 °F 72% 29.82 in 10.0 mi South 11.5 mph - N/A   Clear
3:15 AM 62.6 °F 53.6 °F 72% 29.82 in 10.0 mi South 12.7 mph 18.4 mph N/A   Mostly Cloudy
3:35 AM 62.6 °F 53.6 °F 72% 29.81 in 10.0 mi South 10.4 mph - N/A   Mostly Cloudy
3:55 AM 62.6 °F 53.6 °F 72% 29.81 in 10.0 mi South 12.7 mph - N/A   Mostly Cloudy
4:15 AM 62.6 °F 53.6 °F 72% 29.81 in 10.0 mi South 11.5 mph - N/A   Overcast
4:35 AM 62.6 °F 53.6 °F 72% 29.80 in 10.0 mi South 13.8 mph 19.6 mph N/A   Overcast
4:55 AM 62.6 °F 53.6 °F 72% 29.80 in 10.0 mi South 10.4 mph 19.6 mph N/A   Overcast
5:15 AM 62.6 °F 53.6 °F 72% 29.81 in 10.0 mi South 13.8 mph 18.4 mph N/A   Overcast
5:35 AM 62.6 °F 53.6 °F 72% 29.80 in 10.0 mi South 13.8 mph 18.4 mph N/A   Overcast
5:55 AM 62.6 °F 53.6 °F 72% 29.79 in 10.0 mi South 15.0 mph 20.7 mph N/A   Scattered Clouds
6:15 AM 60.8 °F 53.6 °F 77% 29.80 in 10.0 mi South 11.5 mph - N/A   Clear
6:35 AM 60.8 °F 53.6 °F 77% 29.80 in 10.0 mi South 12.7 mph 19.6 mph N/A   Clear
6:55 AM 62.6 °F 53.6 °F 72% 29.80 in 10.0 mi South 15.0 mph 24.2 mph N/A   Clear
7:15 AM 62.6 °F 53.6 °F 72% 29.81 in 10.0 mi South 15.0 mph - N/A   Clear
7:35 AM 62.6 °F 53.6 °F 72% 29.81 in 10.0 mi South 13.8 mph 18.4 mph N/A   Clear
7:55 AM 62.6 °F 55.4 °F 77% 29.82 in 10.0 mi South 11.5 mph - N/A   Clear
8:15 AM 62.6 °F 55.4 °F 77% 29.82 in 10.0 mi South 11.5 mph 16.1 mph N/A   Clear
8:35 AM 64.4 °F 55.4 °F 73% 29.82 in 10.0 mi South 13.8 mph 17.3 mph N/A   Clear
8:55 AM 64.4 °F 55.4 °F 73% 29.83 in 10.0 mi South 10.4 mph - N/A   Clear
9:15 AM 64.4 °F 55.4 °F 73% 29.83 in 10.0 mi South 10.4 mph - N/A   Clear
9:35 AM 64.4 °F 55.4 °F 73% 29.84 in 10.0 mi South 13.8 mph 18.4 mph N/A   Clear
10:15 AM 64.4 °F 57.2 °F 77% 29.86 in 10.0 mi South 12.7 mph 19.6 mph N/A   Clear
10:35 AM 64.4 °F 57.2 °F 77% 29.85 in 10.0 mi South 9.2 mph - N/A   Clear
10:55 AM 66.2 °F 57.2 °F 73% 29.85 in 10.0 mi South 8.1 mph - N/A   Clear
11:15 AM 66.2 °F 57.2 °F 73% 29.84 in 10.0 mi South 6.9 mph - N/A   Clear
11:35 AM 69.8 °F 59.0 °F 68% 29.85 in 10.0 mi South 15.0 mph 21.9 mph N/A   Clear
11:55 AM 69.8 °F 59.0 °F 68% 29.85 in 10.0 mi South 12.7 mph 24.2 mph N/A   Clear
12:15 PM 69.8 °F 59.0 °F 68% 29.86 in 10.0 mi South 13.8 mph 24.2 mph N/A   Clear
12:35 PM 69.8 °F 60.8 °F 73% 29.85 in 10.0 mi South 13.8 mph 23.0 mph N/A   Clear
12:55 PM 71.6 °F 60.8 °F 69% 29.86 in 10.0 mi South 16.1 mph 26.5 mph N/A   Clear
1:15 PM 69.8 °F 60.8 °F 73% 29.86 in 10.0 mi SSW 17.3 mph 25.3 mph N/A   Clear
1:35 PM 69.8 °F 60.8 °F 73% 29.86 in 10.0 mi South 18.4 mph 25.3 mph N/A   Clear
1:55 PM 71.6 °F 60.8 °F 69% 29.86 in 10.0 mi South 18.4 mph 24.2 mph N/A   Clear
2:15 PM 73.4 °F 60.8 °F 65% 29.85 in 10.0 mi SSW 17.3 mph 23.0 mph N/A   Clear
2:35 PM 73.4 °F 60.8 °F 65% 29.85 in 10.0 mi South 16.1 mph 24.2 mph N/A   Scattered Clouds
2:55 PM 73.4 °F 60.8 °F 65% 29.84 in 10.0 mi SSW 16.1 mph 24.2 mph N/A   Scattered Clouds
3:15 PM 73.4 °F 60.8 °F 65% 29.84 in 10.0 mi SSW 18.4 mph 23.0 mph N/A   Clear
3:35 PM 75.2 °F 60.8 °F 61% 29.84 in 10.0 mi South 13.8 mph 21.9 mph N/A   Clear
3:55 PM 73.4 °F 60.8 °F 65% 29.83 in 10.0 mi South 11.5 mph 23.0 mph N/A   Clear
4:15 PM 73.4 °F 60.8 °F 65% 29.84 in 10.0 mi South 12.7 mph - N/A   Scattered Clouds
4:35 PM 73.4 °F 59.0 °F 61% 29.83 in 10.0 mi SSW 13.8 mph 18.4 mph N/A   Scattered Clouds
4:55 PM 73.4 °F 60.8 °F 65% 29.83 in 10.0 mi South 9.2 mph - N/A   Scattered Clouds
5:15 PM 75.2 °F 59.0 °F 57% 29.83 in 10.0 mi South 16.1 mph 19.6 mph N/A   Scattered Clouds
5:35 PM 75.2 °F 57.2 °F 53% 29.83 in 10.0 mi South 13.8 mph 17.3 mph N/A   Clear
5:55 PM 73.4 °F 57.2 °F 57% 29.83 in 10.0 mi South 12.7 mph 18.4 mph N/A   Clear
6:15 PM 73.4 °F 57.2 °F 57% 29.83 in 10.0 mi South 12.7 mph 18.4 mph N/A   Clear
6:35 PM 73.4 °F 57.2 °F 57% 29.84 in 10.0 mi South 11.5 mph - N/A   Clear
6:55 PM 73.4 °F 57.2 °F 57% 29.85 in 10.0 mi South 8.1 mph - N/A   Scattered Clouds
7:15 PM 71.6 °F 57.2 °F 60% 29.85 in 10.0 mi South 13.8 mph - N/A   Scattered Clouds
7:35 PM 71.6 °F 59.0 °F 64% 29.85 in 10.0 mi South 11.5 mph - N/A   Mostly Cloudy
7:55 PM 71.6 °F 57.2 °F 60% 29.86 in 10.0 mi South 12.7 mph 18.4 mph N/A   Overcast
8:15 PM 71.6 °F 59.0 °F 64% 29.87 in 10.0 mi South 10.4 mph 16.1 mph N/A   Overcast
8:35 PM 69.8 °F 59.0 °F 68% 29.88 in 10.0 mi South 9.2 mph - N/A   Overcast
8:55 PM 69.8 °F 59.0 °F 68% 29.89 in 10.0 mi South 13.8 mph - N/A   Overcast
9:15 PM 69.8 °F 59.0 °F 68% 29.90 in 10.0 mi South 10.4 mph - N/A   Overcast
9:35 PM 69.8 °F 59.0 °F 68% 29.91 in 10.0 mi South 8.1 mph - N/A   Overcast
9:55 PM 69.8 °F 59.0 °F 68% 29.91 in 10.0 mi SSW 4.6 mph - N/A   Overcast
10:15 PM 69.8 °F 59.0 °F 68% 29.91 in 10.0 mi SSE 4.6 mph - N/A   Mostly Cloudy
10:35 PM 66.2 °F 59.0 °F 78% 29.91 in 10.0 mi SE 3.5 mph - N/A   Mostly Cloudy
10:55 PM 66.2 °F 59.0 °F 78% 29.91 in 10.0 mi SE 4.6 mph - N/A   Overcast
11:15 PM 66.2 °F 59.0 °F 78% 29.91 in 10.0 mi SE 4.6 mph - N/A   Overcast
11:35 PM 66.2 °F 59.0 °F 78% 29.92 in 10.0 mi SE 4.6 mph - N/A   Overcast
11:55 PM 66.2 °F 59.0 °F 78% 29.91 in 10.0 mi SE 5.8 mph - N/A   Overcast